GFSNGP_con_3kmhel_276.txt.gz
Helicity
80 68 64 67 111 166 159 150 93 36 91 38 43 35 35 44 81 109 90 58 40 32 37 26 35 36 39 37 33 20 15 10 6 16 29 29 29 16 10 -1 -4 -6 -13 -9
153 102 71 66 51 104 110 135 50 58 24 26 15 97 92 85 125 121 74 59 54 44 52 49 47 45 46 45 39 28 13 8 9 13 19 19 19 13 16 14 14 14 11 29
111 129 86 61 61 116 106 130 150 115 103 84 87 102 88 118 148 138 90 86 88 68 69 62 59 58 56 50 41 30 23 15 12 14 22 12 15 15 28 44 49 39 37 37
100 132 103 44 60 79 172 132 171 144 106 129 83 64 131 179 214 142 121 109 94 92 81 76 69 68 68 60 50 48 41 23 16 10 27 33 36 43 48 61 64 68 68 58
140 117 91 46 46 81 104 48 200 190 189 114 144 184 125 168 183 164 143 125 96 85 85 90 89 84 89 83 68 68 52 41 44 40 37 46 56 59 67 73 85 92 89 76
200 119 44 12 88 94 116 15 34 149 189 284 249 167 118 172 175 148 153 147 129 109 107 112 96 96 100 84 67 60 52 49 58 60 56 55 68 72 73 82 103 119 102 84
244 153 113 77 96 65 122 29 53 70 154 331 200 132 142 230 185 172 176 166 154 137 128 117 112 107 96 80 67 47 49 57 66 72 66 68 83 83 90 106 120 123 107 90
270 212 74 69 174 114 65 64 55 56 200 219 194 187 173 188 236 230 213 188 166 171 152 131 122 111 88 69 60 54 60 66 69 70 67 69 74 87 114 133 138 146 127 99
166 102 99 60 107 120 91 86 76 90 161 178 231 189 197 211 242 221 209 183 161 171 164 127 108 97 92 68 71 66 67 68 73 76 76 76 83 102 124 142 157 153 134 113
178 116 75 53 100 67 53 62 67 59 128 177 185 204 219 244 246 226 204 179 174 190 160 124 91 85 72 71 82 85 76 75 81 90 88 92 107 123 149 147 159 162 131 116
193 150 115 72 52 55 56 81 83 72 103 188 233 219 264 243 221 202 183 176 179 165 137 108 95 86 78 83 102 100 84 83 92 103 99 106 122 148 162 168 167 157 146 148
177 105 108 61 40 31 94 95 101 132 138 162 215 269 227 206 190 193 168 182 167 140 127 103 99 92 93 105 120 114 96 94 104 100 96 111 132 146 120 112 88 88 81 114
122 99 106 117 88 61 89 111 111 109 127 152 163 209 178 193 172 174 185 175 145 122 108 107 98 100 108 129 129 113 94 89 98 74 81 92 105 131 156 128 96 98 89 91
130 127 107 86 64 70 72 103 139 106 110 110 119 132 181 201 193 167 139 119 116 111 102 104 113 114 121 128 117 91 85 94 112 103 99 104 111 140 173 169 158 134 119 107
116 122 87 74 65 79 102 181 179 140 155 158 128 159 194 188 147 94 123 132 125 115 116 124 126 109 113 107 95 85 97 107 113 125 128 116 126 146 171 172 170 170 152 133
68 62 80 103 77 89 127 148 170 162 167 188 176 159 147 142 157 169 166 185 194 121 128 140 117 99 96 96 90 92 104 99 107 118 131 130 135 152 169 176 176 165 162 139
169 165 123 91 90 109 124 128 141 160 175 212 171 201 240 256 259 242 219 174 142 145 151 138 106 109 106 102 95 94 106 106 95 104 129 133 126 147 160 179 185 170 167 142
117 125 160 152 105 96 104 117 140 203 219 206 274 317 324 296 249 286 270 249 227 196 148 121 119 118 100 99 95 104 113 105 102 105 112 130 127 136 153 180 187 165 165 155
71 79 116 89 73 62 86 119 150 158 232 307 367 319 302 308 365 387 344 270 220 177 108 131 124 107 95 80 98 116 112 107 110 128 130 127 130 138 156 164 195 155 156 149
89 85 86 69 79 108 106 98 155 187 215 267 307 362 349 368 407 380 298 214 156 146 174 138 117 105 95 95 117 113 107 105 103 101 101 115 124 136 133 140 171 155 152 142
128 143 122 118 104 100 103 132 180 196 219 251 264 256 276 377 388 366 296 206 136 179 171 144 125 114 98 111 117 110 108 103 93 86 86 105 115 127 125 160 146 153 143 135
95 125 159 146 164 136 127 149 188 228 246 240 256 309 378 389 377 315 247 184 202 175 164 145 125 103 109 115 110 104 95 84 82 84 98 106 121 128 142 158 139 139 132 124
145 145 119 123 114 130 178 213 233 245 270 278 322 324 334 327 289 291 224 193 212 176 157 133 108 108 112 99 87 86 82 80 90 87 85 101 122 139 145 159 132 126 127 120
189 171 162 195 244 252 219 224 246 233 268 299 307 338 410 372 315 236 209 199 190 165 137 116 102 102 100 99 91 87 75 78 88 86 88 95 123 139 135 158 132 117 118 111
149 185 245 222 196 205 245 273 319 315 344 359 378 394 346 299 297 240 242 206 165 144 126 99 95 97 96 96 92 76 69 76 84 87 91 104 107 121 127 140 139 115 106 114
156 164 186 190 195 240 271 284 311 311 357 427 430 392 380 330 287 248 218 174 140 120 102 85 89 97 95 92 84 71 70 77 85 86 100 113 113 118 122 133 137 107 91 104
167 181 226 253 203 210 237 254 291 313 316 410 483 392 338 292 247 220 176 134 115 98 89 85 88 86 93 88 76 71 73 81 81 93 110 121 128 130 122 121 135 102 83 84

GFSNGP_con_3kmhel_279.txt.gz
Helicity
151 130 118 99 95 118 96 112 62 37 56 56 60 48 36 21 42 62 70 77 67 55 49 39 34 33 33 32 27 24 29 29 27 27 34 38 35 36 41 45 48 57 68 71
180 117 104 110 71 60 63 66 33 34 9 21 41 42 75 63 66 70 67 71 56 47 45 36 38 40 39 39 38 37 42 43 43 42 42 40 39 39 46 52 64 69 78 79
139 136 115 99 48 81 78 75 62 50 42 81 89 88 51 59 82 72 63 73 61 47 44 47 51 54 56 55 51 51 49 48 41 38 35 34 39 46 52 56 65 69 77 83
153 167 157 93 88 52 107 73 101 58 59 79 78 79 42 60 91 71 72 79 64 56 60 65 68 65 68 59 56 51 46 41 37 36 34 38 38 41 47 51 59 74 82 88
188 181 183 129 81 76 60 51 117 101 88 65 77 101 32 46 71 109 94 84 79 66 79 84 76 79 76 66 58 52 45 41 36 40 42 43 53 57 48 53 60 75 87 87
218 177 124 80 99 95 79 45 43 55 117 157 159 119 90 77 56 86 118 119 116 101 99 97 89 86 81 74 65 60 52 45 45 55 53 52 46 38 45 52 65 83 87 94
260 189 180 103 88 59 113 57 73 45 51 149 162 138 85 97 99 91 131 151 139 129 108 100 105 97 89 81 74 70 57 53 56 66 65 59 53 49 44 57 75 87 96 104
270 226 132 85 169 100 80 77 61 69 37 155 86 139 103 112 147 154 170 185 163 141 122 124 113 100 98 91 86 71 68 66 63 67 75 70 60 54 48 63 79 89 103 115
135 143 141 56 122 87 98 90 74 64 38 45 118 149 153 108 115 163 202 200 164 152 152 137 114 97 105 99 81 76 76 76 70 69 72 69 69 68 75 83 90 95 121 136
185 134 84 86 61 53 23 63 86 76 51 44 86 149 128 129 158 200 190 190 177 177 160 137 112 104 100 96 87 82 79 78 74 74 72 69 76 80 91 95 101 114 133 155
219 173 115 80 42 40 108 94 70 49 39 31 71 117 165 161 166 194 204 185 180 167 146 121 113 97 85 83 83 83 82 80 79 80 77 73 72 78 89 95 111 132 144 145
207 140 129 76 56 52 59 58 48 71 91 71 63 108 135 141 171 205 196 189 169 148 137 120 113 96 86 85 86 89 82 84 84 87 82 71 68 78 86 95 76 90 110 134
136 97 105 107 68 75 50 46 45 60 76 127 84 92 133 174 160 178 177 170 154 130 117 122 113 103 94 93 92 90 79 85 87 89 83 84 79 74 89 107 88 99 99 120
128 133 120 81 80 65 84 91 77 84 97 115 116 101 143 174 208 178 152 116 127 133 117 114 105 93 97 97 92 86 76 85 84 87 87 85 85 81 88 108 111 118 121 123
98 113 100 68 65 74 68 76 92 94 102 120 128 138 139 181 175 111 119 138 136 127 111 102 96 89 101 97 89 79 78 80 85 89 92 90 84 82 86 97 103 130 140 137
74 74 77 105 80 80 67 64 78 88 107 129 121 95 74 95 105 120 133 149 163 112 100 93 84 93 100 94 83 76 76 81 89 90 85 81 85 80 89 92 97 128 150 148
77 109 93 88 76 86 96 90 96 99 111 134 91 82 111 120 145 148 119 122 117 122 101 95 91 117 103 93 78 75 83 82 87 87 90 89 89 89 91 90 97 127 147 148
82 57 83 92 95 98 85 87 108 118 121 79 143 171 196 192 147 147 180 205 177 171 134 131 153 140 117 93 78 75 79 80 81 84 88 89 93 93 90 92 108 125 149 152
59 67 55 75 91 89 130 124 118 102 111 162 212 204 186 177 204 262 316 300 249 192 133 174 175 144 109 93 82 82 76 75 81 92 103 90 81 82 92 105 106 125 145 145
77 56 82 90 107 133 121 106 105 129 156 183 211 251 245 266 299 326 333 306 205 184 207 184 164 124 112 103 90 83 77 84 92 99 93 80 79 82 89 84 100 129 140 135
73 67 110 94 110 134 86 59 111 132 165 194 215 208 224 282 312 341 372 294 217 238 209 190 158 135 112 98 89 86 83 81 82 88 92 86 81 82 88 95 110 133 136 130
105 42 41 132 131 103 101 109 94 147 169 176 196 237 274 263 298 283 287 264 290 232 232 185 154 131 111 96 82 69 69 75 84 90 90 87 80 75 77 94 101 124 128 125
80 120 112 136 128 130 143 160 179 149 125 155 198 223 226 238 280 326 287 249 296 234 197 166 152 136 109 80 68 68 74 82 86 87 82 77 70 63 71 88 99 121 131 120
114 129 154 125 136 148 166 146 134 123 136 169 226 247 271 300 297 276 271 287 242 219 188 173 141 114 85 75 69 74 77 83 84 80 74 66 64 73 78 92 102 119 130 110
119 133 158 175 159 157 168 178 195 198 232 236 247 239 209 199 284 329 317 275 240 216 182 143 112 96 75 71 71 75 82 86 86 79 71 70 71 74 82 92 99 114 126 115
132 152 170 169 175 179 188 187 199 250 311 350 315 302 339 309 319 333 284 250 213 179 151 116 95 81 74 69 68 73 84 89 85 75 69 69 75 78 83 89 93 108 121 104
117 128 134 156 157 161 174 205 254 269 293 313 327 306 337 361 372 348 292 237 192 161 129 105 87 73 66 67 68 78 90 88 76 70 70 72 75 80 89 93 98 106 108 84

GFSNGP_con_3kmhel_282.txt.gz
Helicity
164 108 68 60 81 86 61 43 65 43 37 45 66 85 86 86 85 90 82 77 69 57 38 28 23 17 13 22 23 13 11 15 21 20 23 24 23 24 25 24 30 42 53 65
169 142 121 109 78 54 32 32 23 38 55 68 60 65 94 115 105 94 84 76 75 58 47 34 26 20 22 24 27 17 17 22 22 23 25 30 29 26 28 29 36 40 52 62
147 106 106 117 64 54 30 24 24 25 16 64 74 91 118 123 108 95 77 75 77 55 46 37 31 28 30 32 34 25 28 32 31 33 36 36 34 35 35 36 39 45 59 72
172 114 159 115 126 51 44 31 30 23 35 60 55 50 72 72 97 87 85 83 69 60 49 41 41 39 44 41 39 37 42 44 42 40 41 49 44 41 38 33 38 47 57 69
171 143 176 82 118 144 88 30 19 13 32 55 49 58 62 67 70 77 78 64 62 58 59 58 56 57 51 50 48 51 54 55 52 48 46 49 59 72 44 43 47 52 60 73
213 164 154 131 97 96 81 79 51 18 17 64 120 107 100 118 87 79 66 68 94 83 74 73 67 66 59 60 59 64 65 61 52 53 51 54 59 56 60 56 56 67 68 90
192 159 138 117 94 94 144 110 90 69 36 57 93 68 50 98 90 99 137 123 118 106 84 78 82 74 66 64 61 73 65 56 56 56 58 58 64 65 66 68 71 71 76 98
241 201 147 84 118 144 142 119 102 96 77 32 34 20 116 85 128 155 175 149 138 120 96 92 93 84 78 70 81 74 71 62 56 56 59 64 64 67 73 75 81 79 100 118
164 196 138 46 99 71 85 69 81 80 88 48 38 59 114 136 142 175 178 153 133 125 113 105 102 89 85 92 87 82 75 67 60 63 64 66 66 70 85 84 102 121 130 135
159 117 93 54 41 47 44 78 79 90 80 36 26 46 102 170 133 147 157 158 151 140 121 115 110 104 96 106 95 82 75 73 69 72 76 72 85 89 102 105 105 109 112 121
142 164 145 95 36 25 51 56 46 58 61 56 62 59 109 174 147 135 142 147 145 142 125 117 123 118 120 113 95 78 78 77 70 76 74 82 80 86 85 79 98 78 81 109
166 137 116 67 18 41 55 70 76 64 51 41 44 62 87 158 151 146 152 148 146 137 129 135 130 127 127 110 86 75 74 76 79 74 71 74 80 77 96 104 67 57 56 94
97 74 49 76 71 50 52 58 34 27 39 54 64 77 87 148 159 159 164 156 153 153 143 151 145 135 125 110 87 78 69 72 72 78 78 80 81 81 81 89 99 86 77 92
136 102 76 69 90 67 56 64 56 49 70 75 91 107 118 144 172 161 172 143 160 157 159 156 149 132 123 106 92 81 68 102 62 71 76 81 85 92 91 90 90 90 91 108
127 112 96 79 55 65 60 68 83 65 56 61 78 86 111 145 168 147 154 184 176 169 162 153 141 127 122 108 94 78 72 63 70 71 76 86 79 85 90 92 95 91 90 103
134 85 82 70 52 39 62 52 54 72 76 75 83 79 80 99 124 160 191 209 218 185 143 132 120 120 122 108 92 82 69 86 77 70 78 81 86 89 93 97 92 89 94 107
108 129 90 66 81 91 60 57 51 60 57 68 61 76 92 118 159 184 179 144 125 136 127 117 116 124 119 108 93 85 77 77 82 74 73 83 87 87 93 95 99 99 93 103
51 69 68 48 53 53 53 57 72 80 78 55 72 106 138 151 165 175 157 146 158 177 137 128 150 158 129 115 98 88 81 79 76 75 79 84 93 96 95 103 90 92 88 108
38 40 56 68 49 62 64 85 71 40 95 90 120 152 147 141 149 186 239 238 251 232 188 215 224 171 147 141 122 95 79 75 71 75 86 98 83 90 92 90 87 78 87 114
54 59 65 50 33 55 48 70 66 68 92 108 145 180 171 186 226 262 266 238 193 199 255 227 210 181 152 150 120 91 78 75 73 79 82 85 89 95 78 81 75 77 101 117
65 71 77 69 64 95 125 98 144 158 147 159 163 151 155 167 216 263 261 239 226 262 248 285 238 199 165 157 115 91 86 80 77 74 81 83 87 76 75 69 74 85 102 114
102 102 106 133 101 95 110 130 137 150 117 140 189 209 222 182 218 210 214 224 311 352 330 304 241 203 179 166 116 103 83 76 74 72 77 79 83 80 76 73 70 82 100 111
88 62 12 68 73 39 59 87 122 126 138 147 180 183 170 190 195 246 213 222 276 314 310 275 267 277 212 146 126 100 86 84 74 70 76 83 82 79 72 66 65 78 96 107
102 32 30 63 15 -16 28 82 104 97 126 121 136 173 168 206 178 153 189 265 282 355 370 318 264 215 175 145 115 99 85 77 69 70 72 81 84 75 67 64 69 88 96 102
74 59 55 75 76 82 64 80 148 172 180 188 162 118 117 135 214 243 236 285 328 376 313 261 232 192 162 129 108 93 80 71 70 73 83 81 75 72 67 67 73 89 97 104
38 51 46 13 41 93 140 165 184 214 242 251 205 163 180 196 238 259 260 262 330 343 306 255 214 174 147 114 97 85 75 74 76 77 87 79 71 69 68 70 80 91 101 103
63 79 76 98 117 128 135 147 172 188 207 207 213 209 262 280 285 289 334 369 381 348 299 229 183 155 129 108 90 83 78 76 81 82 91 77 72 78 78 86 93 96 100 102

GFSNGP_con_3kmhel_285.txt.gz
Helicity
86 108 77 54 63 68 81 39 59 26 28 58 51 75 76 80 80 86 77 84 79 77 78 66 56 45 30 33 30 20 18 15 24 20 18 22 23 23 25 26 28 32 39 45
137 153 119 78 41 45 36 24 -12 48 64 82 54 54 80 85 86 93 89 92 89 88 85 75 62 48 40 34 28 22 20 22 23 22 19 27 26 26 27 29 36 39 41 46
136 102 113 105 95 49 43 14 14 40 42 121 103 93 119 124 124 113 110 98 100 94 87 77 64 48 44 34 31 21 24 26 24 23 25 36 32 34 37 39 39 40 42 50
138 83 127 127 63 51 30 9 2 0 52 58 67 67 76 83 93 91 112 105 102 96 95 82 68 53 45 36 34 27 28 31 33 32 34 46 43 41 42 42 44 47 49 57
176 165 162 43 111 78 54 24 24 20 26 44 79 72 86 85 83 93 108 103 97 94 92 85 73 63 47 38 36 36 32 39 44 44 45 50 58 62 45 44 49 54 58 63
171 156 150 115 18 37 58 59 30 20 44 64 97 90 95 125 111 125 114 118 115 106 118 99 83 72 56 48 45 47 57 63 57 52 51 55 60 55 55 55 56 62 63 67
190 173 147 97 120 73 128 121 71 60 45 63 84 67 41 153 110 126 131 145 151 134 117 99 89 81 63 52 53 60 73 65 59 56 60 62 62 57 59 59 63 66 68 82
204 183 174 127 106 106 118 87 84 135 89 61 43 56 71 118 102 121 141 158 172 151 131 121 98 80 69 66 74 88 75 69 68 66 65 68 64 65 70 71 75 81 93 98
196 206 140 68 55 116 108 75 109 120 115 94 68 59 83 112 98 113 147 191 179 165 145 124 106 80 73 85 108 89 79 72 72 68 64 71 66 76 89 100 113 108 109 108
90 93 73 91 15 44 49 50 51 54 88 84 65 45 83 115 101 115 177 194 170 154 152 143 112 85 77 118 111 95 79 78 75 68 71 63 81 93 98 100 99 102 105 113
119 68 34 94 91 48 26 29 45 70 69 66 48 38 52 82 114 139 177 188 157 160 156 140 115 100 113 146 122 104 97 96 87 82 71 70 78 83 92 94 119 112 103 106
187 61 94 58 39 46 38 26 37 28 20 41 56 55 37 63 122 158 158 193 165 154 145 145 127 125 138 157 131 124 119 110 101 95 78 75 75 75 100 118 115 113 99 103
91 97 44 69 81 66 26 23 48 58 61 59 51 64 49 43 109 139 145 179 164 162 156 158 148 146 153 156 144 134 123 107 108 98 74 70 73 80 87 95 105 106 98 94
84 139 119 62 91 78 73 81 109 83 63 75 64 54 52 49 90 127 175 192 143 165 173 172 170 165 169 166 152 140 123 166 118 90 74 70 67 88 87 91 96 93 96 89
92 119 158 144 84 82 30 78 77 56 46 67 76 74 88 76 110 141 196 184 172 208 202 196 190 176 191 179 156 140 125 115 105 91 84 83 80 74 80 86 93 102 98 100
97 125 115 85 115 120 46 70 88 91 65 58 52 53 60 53 79 111 157 176 214 268 243 243 192 185 207 161 150 145 133 177 158 103 78 74 74 75 82 88 94 99 110 111
136 133 100 104 92 100 164 48 66 74 61 45 56 55 71 66 77 97 134 175 194 208 200 201 180 183 194 139 142 150 140 134 123 90 83 77 81 81 84 93 97 109 103 104
60 56 76 109 113 70 92 105 88 77 76 73 47 54 89 106 103 121 189 236 234 260 236 212 228 266 202 133 137 145 131 124 97 86 82 83 80 89 89 91 97 102 96 93
65 67 71 90 83 127 87 97 84 66 78 94 93 106 118 128 141 184 272 303 327 305 273 270 285 245 177 166 161 140 128 115 99 86 87 101 89 75 83 92 88 97 85 97
39 41 25 29 61 84 67 84 104 112 89 97 101 146 171 185 219 275 296 249 206 209 292 295 271 217 190 202 190 145 127 117 104 97 100 84 86 91 84 79 82 87 94 99
156 71 31 28 34 38 51 61 64 104 125 132 121 142 169 182 232 283 270 234 185 237 259 283 271 267 230 217 196 172 144 135 120 103 102 96 101 80 80 86 83 82 91 101
231 323 296 107 58 48 61 64 52 104 140 143 185 194 210 176 206 198 182 207 284 297 319 332 316 301 321 263 214 200 161 132 112 102 97 94 86 96 93 85 80 80 85 94
97 72 143 311 172 133 75 58 112 111 115 172 172 175 160 166 183 229 213 206 293 346 356 354 389 461 372 259 264 217 168 155 137 113 106 102 94 90 83 81 77 78 82 83
56 34 53 105 229 110 81 57 62 66 137 117 108 134 92 173 157 146 171 260 308 380 361 437 497 458 343 336 280 231 184 165 128 111 90 84 96 90 75 87 75 79 85 81
9 57 64 59 149 151 80 39 42 67 131 95 78 85 122 170 194 182 245 304 336 293 386 408 416 387 367 333 263 220 182 146 118 108 91 93 82 87 85 85 81 81 83 88
75 77 54 54 64 71 70 68 76 111 181 184 156 156 179 164 158 229 237 255 239 324 344 377 371 375 342 273 218 191 156 122 106 99 94 81 76 73 87 84 86 82 89 90
111 92 83 91 87 97 94 94 87 123 177 247 256 236 242 235 184 163 216 233 318 324 343 357 339 317 297 235 194 162 137 116 108 91 93 92 81 91 92 90 95 89 92 98

GFSNGP_con_3kmhel_288.txt.gz
Helicity
70 41 14 23 77 52 81 60 83 33 33 90 83 117 114 101 125 115 107 111 122 109 100 102 98 91 73 80 59 45 43 35 48 40 30 40 32 25 30 33 33 29 31 39
171 107 85 77 28 42 56 28 35 18 28 34 104 91 106 102 139 122 117 133 127 112 121 117 114 107 82 88 68 53 43 46 47 38 29 48 27 33 37 34 33 37 42 44
178 142 118 109 147 50 38 45 30 43 8 90 130 109 154 146 166 139 150 138 135 127 138 127 125 109 104 88 76 54 54 48 43 36 29 53 33 49 43 39 42 47 51 51
162 174 138 107 107 108 50 41 40 33 25 22 113 86 122 133 160 129 171 134 138 145 157 147 135 116 114 89 83 55 51 52 48 41 36 59 55 61 49 44 51 55 58 65
241 191 206 56 92 94 105 67 36 41 28 11 98 130 97 132 142 140 153 156 170 185 175 161 146 131 116 87 77 63 47 55 50 54 43 46 64 58 52 60 65 70 68 72
256 206 157 128 62 24 87 75 62 52 43 3 36 160 180 187 167 175 154 198 212 204 181 176 152 150 115 88 72 58 58 63 70 60 54 51 66 64 65 66 68 76 79 85
206 186 153 113 104 6 102 112 83 63 51 51 67 125 165 218 217 208 202 248 236 221 207 201 172 171 113 96 78 67 93 90 78 73 65 62 72 69 73 70 78 84 96 112
265 177 143 77 111 183 135 137 149 173 107 61 96 138 73 154 252 228 248 262 264 253 238 228 192 172 130 108 99 118 131 97 87 79 76 77 81 71 77 89 99 95 88 98
246 304 69 148 152 126 125 89 86 138 181 246 144 146 96 106 209 224 265 268 287 300 286 259 217 167 125 120 158 173 136 109 101 100 88 87 76 91 103 110 93 89 99 114
184 154 167 136 100 99 120 103 77 69 116 152 219 164 120 118 121 182 225 253 306 316 313 285 229 163 119 153 220 182 137 119 124 117 96 106 86 114 92 93 92 106 113 119
165 89 45 41 95 64 48 119 81 48 49 121 137 134 119 125 119 171 206 238 325 326 299 280 217 157 135 213 257 167 135 135 134 144 118 99 110 99 92 97 106 115 118 120
146 90 143 76 62 134 92 71 62 45 53 57 63 64 77 86 107 142 168 255 359 358 312 264 202 166 151 264 229 172 158 178 186 184 142 113 99 85 73 71 80 91 80 109
73 10 10 110 129 63 94 69 47 31 42 38 23 51 67 98 103 79 125 263 371 380 331 272 235 175 196 263 211 160 193 216 206 174 138 105 94 88 96 87 65 65 68 70
109 64 189 47 127 53 64 50 90 124 102 81 80 50 81 75 96 112 125 224 299 306 272 266 251 199 240 282 195 172 212 202 215 146 114 99 84 116 105 91 93 98 87 90
75 58 95 109 94 91 48 90 141 140 120 95 112 134 108 100 69 102 133 168 271 281 261 276 252 226 288 275 201 203 221 221 223 165 139 139 121 97 85 92 94 98 99 108
194 194 104 133 125 55 96 75 36 72 91 123 119 109 105 98 91 123 130 186 305 321 306 291 267 285 314 280 221 221 250 252 197 182 148 117 99 94 99 98 97 99 114 124
72 74 240 129 94 118 151 177 77 80 82 90 79 89 95 91 90 136 133 189 264 314 315 311 343 354 369 267 243 261 283 239 215 178 132 118 111 119 105 104 99 102 114 132
223 193 54 143 175 130 133 56 80 92 88 93 89 94 103 98 96 107 145 203 294 332 329 365 407 418 329 263 260 268 241 200 173 158 134 128 120 113 124 96 96 105 109 119
58 109 178 72 78 134 159 167 125 109 96 89 122 98 77 81 100 122 187 262 333 364 389 455 428 399 338 261 288 253 204 182 152 138 132 144 143 109 101 103 100 97 108 112
139 33 54 167 102 90 139 180 133 150 153 126 152 135 111 111 147 167 222 243 297 387 446 449 411 339 307 293 279 234 206 180 159 141 163 154 131 129 108 88 84 101 106 104
234 315 232 119 33 10 9 49 95 93 72 117 115 127 92 92 124 175 234 243 271 369 389 364 353 322 303 313 283 236 222 201 170 165 173 159 143 124 103 98 94 97 103 103
152 245 217 253 214 108 64 43 22 60 77 85 111 132 146 145 143 146 185 242 344 335 357 353 351 295 298 345 294 282 264 242 222 192 172 169 136 110 97 94 95 99 99 99
37 69 116 132 128 114 90 61 87 64 29 49 81 121 147 151 178 194 197 220 313 326 306 297 315 364 374 374 364 358 305 265 230 212 211 189 156 120 97 93 101 100 92 90
11 21 55 76 97 86 85 78 61 94 78 92 128 141 164 180 159 140 174 222 268 320 321 351 368 439 429 401 417 399 333 293 267 234 207 167 130 104 98 95 101 104 96 88
53 21 25 53 73 58 44 69 85 112 159 154 144 150 154 180 205 172 190 217 300 316 318 371 428 494 467 483 469 381 338 290 247 208 189 162 142 108 94 92 98 106 101 90
31 43 24 18 38 46 44 81 159 160 193 235 220 221 188 172 214 188 262 294 282 294 363 408 443 491 475 440 393 348 299 251 219 195 176 150 119 103 99 100 102 109 102 85
11 49 17 39 29 31 47 101 162 176 152 154 221 224 216 240 223 258 264 257 277 332 337 356 412 444 416 380 338 296 263 233 196 174 152 123 113 110 102 99 102 107 98 91